Location: Tierra del Sol
(32.6128°N, 116.3319°W)
Time: 23:08:26
(UTC-08:00)

Envisat - Pass Details

Date: 16 October 2017
Orbit: 764 x 766 km, 98.2° (Epoch: 17 December)

Event Time Altitude Azimuth Distance (km) Brightness Sun altitude
Exits shadow 19:26:31 10° 35° (NE) 2,287 5.1 -16.7°
Drops below altitude 10° 19:26:37 10° 34° (NE) 2,307 5.1 -16.7°
Sets 19:29:58 0° 11° (N) 3,238 6.1 -17.4°
